Location: Buisson
(44.2787°N, 4.9969°E)
Time: 02:37:14
(UTC+00:00)

Cosmos 2082 Rocket - Pass Details

Date: 18 April 2021
Orbit: 835 x 852 km, 71.0° (Epoch: 07 May)

Event Time Altitude Azimuth Distance (km) Brightness Sun altitude
Rises 01:41:42 0° 339° (NNW) 3,397 5.8 -28.3°
Reaches altitude 10° 01:44:16 10° 345° (NNW) 2,458 5.1 -28.0°
Maximum altitude 01:49:39 45° 58° (ENE) 1,136 3.2 -27.5°
Drops below altitude 10° 01:55:00 10° 130° (SE) 2,441 4.6 -26.9°
Sets 01:57:32 0° 137° (SE) 3,371 5.3 -26.6°
